Stündliche Wetter Juiz de Fora

Heute, 6 März, Samstag

Zeit Temperatur Niederschläge Wind Luftdruck Luftfeuchtigkeit
00:00 +22°C° 0.1 mm 1 m/S 695 mmHg 88%
01:00 +22°C° 0 mm 1 m/S 695 mmHg 87%
02:00 +22°C° 0 mm 1 m/S 695 mmHg 87%
03:00 +22°C° 0 mm 1 m/S 695 mmHg 86%
04:00 +21°C° 0 mm 2 m/S 695 mmHg 87%
05:00 +21°C° 0 mm 2 m/S 695 mmHg 87%
06:00 +21°C° 0 mm 2 m/S 695 mmHg 88%
07:00 +23°C° 0 mm 2 m/S 695 mmHg 86%
08:00 +23°C° 0 mm 2 m/S 696 mmHg 84%
09:00 +24°C° 0 mm 2 m/S 697 mmHg 83%
10:00 +26°C° 0.2 mm 3 m/S 697 mmHg 80%
11:00 +27°C° 0.2 mm 3 m/S 697 mmHg 77%
12:00 +28°C° 0.2 mm 3 m/S 697 mmHg 74%
13:00 +27°C° 1.3 mm 3 m/S 696 mmHg 80%
14:00 +26°C° 1.3 mm 3 m/S 696 mmHg 86%
15:00 +24°C° 1.3 mm 2 m/S 696 mmHg 92%
16:00 +24°C° 0.6 mm 2 m/S 696 mmHg 93%
17:00 +23°C° 0.6 mm 1 m/S 696 mmHg 93%
18:00 +23°C° 0.6 mm 1 m/S 696 mmHg 94%
19:00 +22°C° 0.6 mm 1 m/S 696 mmHg 95%
20:00 +22°C° 0.6 mm 1 m/S 697 mmHg 95%
21:00 +22°C° 0.6 mm 1 m/S 697 mmHg 95%
22:00 +22°C° 0.6 mm 1 m/S 697 mmHg 96%
23:00 +21°C° 0.6 mm 1 m/S 697 mmHg 96%

Morgen, 7 März, Sonntag

Zeit Temperatur Niederschläge Wind Luftdruck Luftfeuchtigkeit
00:00 +21°C° 0.6 mm 1 m/S 697 mmHg 96%
01:00 +21°C° 0 mm 1 m/S 697 mmHg 97%
02:00 +21°C° 0 mm 1 m/S 696 mmHg 97%
03:00 +21°C° 0 mm 1 m/S 696 mmHg 97%
04:00 +21°C° 0.1 mm 1 m/S 696 mmHg 97%
05:00 +19°C° 0.1 mm 0 m/S 696 mmHg 97%
06:00 +19°C° 0.1 mm 0 m/S 696 mmHg 97%
07:00 +21°C° 0.4 mm 1 m/S 697 mmHg 96%
08:00 +22°C° 0.4 mm 1 m/S 697 mmHg 96%
09:00 +22°C° 0.4 mm 1 m/S 698 mmHg 95%
10:00 +23°C° 0.7 mm 1 m/S 698 mmHg 93%
11:00 +24°C° 0.7 mm 1 m/S 698 mmHg 90%
12:00 +24°C° 0.7 mm 1 m/S 698 mmHg 88%
13:00 +25°C° 0.7 mm 1 m/S 698 mmHg 88%
14:00 +25°C° 0.7 mm 1 m/S 697 mmHg 88%
15:00 +25°C° 0.7 mm 1 m/S 697 mmHg 88%
16:00 +24°C° 0.9 mm 1 m/S 697 mmHg 91%
17:00 +23°C° 0.9 mm 1 m/S 697 mmHg 93%
18:00 +22°C° 0.9 mm 1 m/S 697 mmHg 96%
19:00 +22°C° 0.5 mm 1 m/S 697 mmHg 96%
20:00 +21°C° 0.5 mm 1 m/S 697 mmHg 96%
21:00 +21°C° 0.5 mm 1 m/S 698 mmHg 96%
22:00 +21°C° 0.4 mm 1 m/S 698 mmHg 97%
23:00 +21°C° 0.4 mm 1 m/S 698 mmHg 98%

übermorgen, 8 März, Montag

Zeit Temperatur Niederschläge Wind Luftdruck Luftfeuchtigkeit
00:00 +20°C° 0.4 mm 1 m/S 698 mmHg 98%
01:00 +20°C° 0.5 mm 1 m/S 697 mmHg 98%
02:00 +20°C° 0.5 mm 1 m/S 697 mmHg 98%
03:00 +18°C° 0.5 mm 0 m/S 696 mmHg 98%
04:00 +18°C° 0.2 mm 0 m/S 697 mmHg 98%
05:00 +18°C° 0.2 mm 0 m/S 697 mmHg 98%
06:00 +18°C° 0.2 mm 0 m/S 697 mmHg 98%
07:00 +19°C° 0.4 mm 0 m/S 697 mmHg 97%
08:00 +19°C° 0.4 mm 0 m/S 698 mmHg 96%
09:00 +20°C° 0.4 mm 0 m/S 698 mmHg 95%
10:00 +21°C° 0.7 mm 0 m/S 698 mmHg 93%
11:00 +22°C° 0.7 mm 0 m/S 698 mmHg 91%
12:00 +25°C° 0.7 mm 1 m/S 698 mmHg 88%
13:00 +23°C° 1.3 mm 0 m/S 697 mmHg 88%
14:00 +24°C° 1.3 mm 0 m/S 697 mmHg 88%
15:00 +24°C° 1.3 mm 0 m/S 696 mmHg 88%
16:00 +23°C° 1.2 mm 0 m/S 696 mmHg 90%
17:00 +22°C° 1.2 mm 0 m/S 696 mmHg 93%
18:00 +23°C° 1.2 mm 1 m/S 696 mmHg 95%
19:00 +22°C° 1.3 mm 1 m/S 696 mmHg 96%
20:00 +22°C° 1.3 mm 1 m/S 697 mmHg 96%
21:00 +21°C° 1.3 mm 1 m/S 697 mmHg 96%
22:00 +21°C° 1 mm 1 m/S 697 mmHg 97%
23:00 +20°C° 1 mm 1 m/S 697 mmHg 98%

9 März, Dienstag

Zeit Temperatur Niederschläge Wind Luftdruck Luftfeuchtigkeit
00:00 +20°C° 1 mm 1 m/S 696 mmHg 98%
01:00 +18°C° 0.1 mm 0 m/S 696 mmHg 98%
02:00 +18°C° 0.1 mm 0 m/S 696 mmHg 98%
03:00 +18°C° 0.1 mm 0 m/S 695 mmHg 98%
04:00 +18°C° 0 mm 0 m/S 696 mmHg 98%
05:00 +18°C° 0 mm 0 m/S 696 mmHg 98%
06:00 +18°C° 0 mm 0 m/S 696 mmHg 98%
07:00 +19°C° 0.1 mm 0 m/S 696 mmHg 95%
08:00 +21°C° 0.1 mm 0 m/S 697 mmHg 93%
09:00 +22°C° 0.1 mm 0 m/S 697 mmHg 91%
10:00 +23°C° 0.5 mm 0 m/S 697 mmHg 88%
11:00 +24°C° 0.5 mm 0 m/S 697 mmHg 85%
12:00 +25°C° 0.5 mm 0 m/S 697 mmHg 82%
13:00 +24°C° 1.1 mm 0 m/S 696 mmHg 83%
14:00 +24°C° 1.1 mm 0 m/S 696 mmHg 85%
15:00 +24°C° 1.1 mm 0 m/S 696 mmHg 87%
16:00 +23°C° 1.3 mm 0 m/S 695 mmHg 89%
17:00 +22°C° 1.3 mm 0 m/S 695 mmHg 92%
18:00 +23°C° 1.3 mm 1 m/S 695 mmHg 94%
19:00 +22°C° 0.6 mm 1 m/S 695 mmHg 95%
20:00 +22°C° 0.6 mm 1 m/S 696 mmHg 95%
21:00 +21°C° 0.6 mm 1 m/S 696 mmHg 95%
22:00 +21°C° 0 mm 1 m/S 696 mmHg 96%
23:00 +20°C° 0 mm 1 m/S 696 mmHg 97%

10 März, Mittwoch

Zeit Temperatur Niederschläge Wind Luftdruck Luftfeuchtigkeit
00:00 +18°C° 0 mm 0 m/S 696 mmHg 98%
01:00 +18°C° 0 mm 0 m/S 695 mmHg 98%
02:00 +18°C° 0 mm 0 m/S 695 mmHg 98%
03:00 +18°C° 0 mm 0 m/S 695 mmHg 98%
04:00 +18°C° 0 mm 0 m/S 695 mmHg 98%
05:00 +18°C° 0 mm 0 m/S 695 mmHg 98%
06:00 +19°C° 0 mm 0 m/S 695 mmHg 98%
07:00 +21°C° 0 mm 1 m/S 696 mmHg 96%
08:00 +22°C° 0 mm 1 m/S 696 mmHg 95%
09:00 +23°C° 0 mm 1 m/S 697 mmHg 93%
10:00 +24°C° 0.2 mm 1 m/S 697 mmHg 89%
11:00 +25°C° 0.2 mm 1 m/S 696 mmHg 85%
12:00 +26°C° 0.2 mm 1 m/S 696 mmHg 82%
13:00 +26°C° 0.7 mm 1 m/S 696 mmHg 82%
14:00 +27°C° 0.7 mm 1 m/S 695 mmHg 82%
15:00 +27°C° 0.7 mm 1 m/S 695 mmHg 81%
16:00 +26°C° 0.6 mm 1 m/S 695 mmHg 86%
17:00 +25°C° 0.6 mm 1 m/S 695 mmHg 90%
18:00 +24°C° 0.6 mm 1 m/S 695 mmHg 94%
19:00 +23°C° 1.1 mm 1 m/S 695 mmHg 95%
20:00 +22°C° 1.1 mm 1 m/S 695 mmHg 96%
21:00 +22°C° 1.1 mm 1 m/S 696 mmHg 96%
22:00 +21°C° 0.5 mm 1 m/S 696 mmHg 97%
23:00 +21°C° 0.5 mm 1 m/S 696 mmHg 97%

11 März, Donnerstag

Zeit Temperatur Niederschläge Wind Luftdruck Luftfeuchtigkeit
00:00 +21°C° 0.5 mm 1 m/S 696 mmHg 97%
01:00 +21°C° 0.2 mm 1 m/S 696 mmHg 97%
02:00 +21°C° 0.2 mm 1 m/S 695 mmHg 97%
03:00 +21°C° 0.2 mm 1 m/S 695 mmHg 97%
04:00 +20°C° 0 mm 1 m/S 695 mmHg 97%
05:00 +18°C° 0 mm 0 m/S 695 mmHg 96%
06:00 +18°C° 0 mm 0 m/S 696 mmHg 96%
07:00 +22°C° 0 mm 1 m/S 696 mmHg 93%
08:00 +23°C° 0 mm 1 m/S 697 mmHg 89%
09:00 +25°C° 0 mm 1 m/S 698 mmHg 85%
10:00 +26°C° 0.1 mm 1 m/S 698 mmHg 80%
11:00 +27°C° 0.1 mm 1 m/S 698 mmHg 75%
12:00 +29°C° 0.1 mm 1 m/S 698 mmHg 70%
13:00 +28°C° 1.7 mm 1 m/S 697 mmHg 75%
14:00 +27°C° 1.7 mm 1 m/S 697 mmHg 79%
15:00 +27°C° 1.7 mm 1 m/S 696 mmHg 84%
16:00 +26°C° 0.5 mm 1 m/S 696 mmHg 87%
17:00 +25°C° 0.5 mm 1 m/S 696 mmHg 90%
18:00 +24°C° 0.5 mm 1 m/S 696 mmHg 93%
19:00 +23°C° 0.2 mm 1 m/S 696 mmHg 94%
20:00 +22°C° 0.2 mm 1 m/S 697 mmHg 95%
21:00 +22°C° 0.2 mm 1 m/S 697 mmHg 95%
22:00 +22°C° 0 mm 1 m/S 697 mmHg 95%
23:00 +19°C° 0 mm 0 m/S 697 mmHg 95%
Mehr zeigen

Wir brauchen deine Erlaubnis

Meteoprog und unser Service Anbieter werden persönliche Daten aufbewahren, so wie Cookies, Geräte Bezeichnung oder ähnliche Technologien von deinem Gerät und Prozess, so wie Persönliche Daten Inhalte und Werbungen, genauso wie social Media und den Verkehr zu analysieren.

  • Aufbewahrung und/oder Zugang zu deiner Geräte Informationen.

    Cookies, Geräte Bezeichnung oder andere Informationen, können aufbewahrt oder Zugang zu deinem Gerät erhalten, für den Grund, der oben angegeben wird.

  • Personalisierte Werbung und Inhalte, Messungen, Einblick in das Publikum und Produkt Entwicklung.

    Werbungen und Inhalte können personalisiert werden, basierend auf ein Profil. Mehr Daten können besser personalisierte Werbungen und Inhalte hinzufügen. Werbung und Inhalte können gezeigt und gemessen werden. Einblicke über das Publikum, welche die Werbung gesehen haben und den Inhalt, können abgeleitet werden. So wie Daten können genutzt werden, um es zu verbessern oder die Benutzer Erfahrung zu verbessern das System und die Software.

Wenn du “Ich stimme zu” klickst, erlaubst du uns, die Cookies zu benutzen die Geräte Bezeichnung, den Web oder ähnliche Technologien zu benutzen. Deine Settings, können in deinem Gerät bei deinem Browser geändert werden.

Für den bestimmten Zweck, berechtigten Interessen beruhen darauf, mehr als auf den Inhalt. Du kannst mehr darüber in unseren Privaten und Cookie Politik lesen.